STARLINK-1949

Last updated on Tue Nov 24 2020 00:02:03 GMT+0000 (Coordinated Universal Time)

1 46777U 20074AQ 20328.58334491 -.01087830 00000-0 -18991-1 0 9994 2 46777 53.0530 13.5732 0001134 68.5108 263.1514 15.52891368 1806

Satellite not in orbit

STARLINK-1949